World > North America > United States > Ohio > Long Bottom  

Long Bottom, OH Hourly Weather Updates

Feedback E-mail the Weather

Quick Clicks

Long Bottom, OH Weather Maps

°F °C°F °C
Long Bottom Weather Map
UTC Time: 7/20/2024, 07:12
Your Time:

Long Bottom, OH Regional Weather

Expires:202407200800;;973387
ASUS41 KCLE 200712
RWRCLE
OHIO REGIONAL WEATHER ROUNDUP
NATIONAL WEATHER SERVICE WILMINGTON, OH
300 AM EDT SAT JUL 20 2024

NOTE: "FAIR" INDICATES FEW OR NO CLOUDS BELOW 12,000 FEET WITH NO
SIGNIFICANT WEATHER AND/OR OBSTRUCTIONS TO VISIBILITY.


OHZ036-037-039>041-045>050-054>059-063>069-073>076-082>088-200800-
  CENTRAL AND SOUTHEAST OHIO
  
CITY           SKY/WX    TMP DP  RH WIND       PRES   REMARKS
COLUMBUS       FAIR      64  50  60 NE5       30.09F                  
OSU AIRPORT    FAIR      61  51  70 N5        30.11F                  
BOLTON FIELD   FAIR      61  52  72 CALM      30.11F                  
RICKENBACK AFB FAIR      64  55  71 CALM      30.09F                  
NEWARK         FAIR      64  51  62 N3        30.10F                  
MARION         FAIR      57  50  77 CALM      30.12F                  
LANCASTER      FAIR      57  57 100 CALM      30.11F                  
ZANESVILLE     FAIR      64  57  78 CALM      30.10F                  
NEW PHILLY     FAIR      63  60  90 CALM      30.12S                  
$$
  

SKY/WX - Weather  TMP - Temperature  DP - Dew Point  RH - Humidity
WIND - Wind Direction/Speed PRES - Barometric Pressure VSB - Visibility
WCI - Wind Chill Index E13G22 Wind - East Wind 13 mph/Gusts of 22 mph

Trending Headlines

Trending Entertainment Headlines

Long Bottom Radar Loop

Use the map search tool if you want to place a location marker on the radar map...

Long Bottom Quick Facts

National Two Day Weather Forecast


E-mail the Long Bottom Weather Forecast

Voice your opinion or tell us about page issues...